SCP
0 0 0 0 1 1 2 1 1 1 1 1 1 1 1 1 1 1 0 0 0 0 0 0 0 0 0 -0 0 0 0 -0 -0 -0 -0 -0 -0 -0 -0 -0 -0 -0 -0
0 0 0 0 0 0 0 1 1 1 1 1 1 1 1 1 1 1 1 0 0 0 0 0 0 0 0 -0 0 0 0 0 -0 -0 -0 -0 -0 -0 -0 -0 -0 -0 -0
0 0 0 0 1 1 1 0 1 1 1 1 1 1 1 1 1 1 0 0 0 0 0 0 0 0 0 0 0 0 0 -0 -0 -0 -0 0 -0 -0 -0 -0 -0 -0 -0
0 0 0 0 1 1 1 1 0 0 0 1 1 1 1 1 1 1 1 0 0 0 0 0 0 0 0 0 0 0 0 -0 -0 -0 0 0 0 -0 -0 -0 -0 -0 -0
0 0 1 0 1 1 1 1 0 0 0 0 1 1 1 1 1 1 1 1 0 0 0 0 0 0 0 0 0 0 -0 -0 -0 0 0 0 0 -0 -0 -0 -0 -0 -0
0 0 0 1 1 0 1 1 1 1 1 1 1 1 1 1 1 1 1 0 0 0 0 0 0 0 0 0 0 -0 -0 -0 -0 0 0 0 0 -0 -0 -0 -0 -0 -0
1 0 0 0 0 0 0 0 1 1 1 1 1 1 1 1 1 1 1 0 0 0 0 0 0 0 0 0 0 0 0 0 0 0 0 0 0 -0 -0 -0 -0 -0 -0
1 1 1 1 0 0 0 0 0 1 1 1 1 1 1 0 0 0 0 0 0 0 0 0 0 0 0 0 0 0 0 -0 0 0 0 0 -0 -0 -0 -0 -0 -0 -0
1 1 1 1 1 0 0 0 0 1 0 1 0 0 1 1 0 0 0 0 0 0 0 0 0 0 0 0 0 0 0 -0 0 0 0 0 -0 -0 -0 -0 -0 -0 -0
0 1 1 0 0 0 0 0 0 0 0 0 0 0 0 0 0 0 0 0 0 0 0 0 0 0 0 0 0 0 0 0 0 0 0 0 -0 -0 -0 -0 -0 -0 -0
0 0 0 0 0 0 0 0 0 0 0 0 0 0 0 0 0 0 0 0 0 0 0 0 0 0 0 0 0 -0 0 0 0 0 0 -0 -0 -0 -0 -0 -0 -0 -0
0 0 0 0 0 0 0 0 0 0 0 0 0 0 0 0 0 0 0 0 0 0 0 0 0 0 0 0 0 0 0 0 0 0 0 -0 -0 -0 -0 -0 -0 -0 -0
0 0 0 0 0 0 0 0 0 0 0 0 0 0 0 0 0 0 0 0 0 0 0 0 0 0 0 0 0 0 0 0 0 0 0 -0 -0 -0 -0 -0 -0 -0 -0
0 0 0 0 0 0 0 0 0 0 0 0 0 0 0 0 0 0 0 0 0 0 0 0 0 0 0 0 0 0 0 0 0 0 0 0 -0 -0 -0 -0 -0 0 0
0 0 0 0 0 0 0 0 0 0 0 0 0 0 0 0 0 0 0 0 0 0 0 0 0 0 0 0 0 0 0 0 0 0 0 0 0 0 -0 0 0 0 0
0 0 0 0 0 0 0 0 0 0 0 0 0 0 0 0 0 0 0 0 0 0 0 0 0 0 0 0 0 0 0 0 0 0 0 0 0 0 0 0 0 0 0
0 0 0 0 0 0 -0 0 0 0 0 0 -0 0 0 0 0 0 0 0 0 0 0 0 0 0 0 0 0 0 0 0 0 0 0 0 0 0 0 0 0 0 0
0 0 0 0 0 0 -0 0 0 0 0 0 -0 0 0 0 0 0 0 0 0 0 0 0 0 0 0 0 0 0 0 0 0 0 0 0 0 0 0 0 0 0 0
0 0 0 0 0 0 0 0 0 0 0 0 0 0 0 0 0 0 0 0 0 0 0 0 0 0 0 0 0 0 0 0 0 0 0 0 0 0 0 0 0 0 0
0 0 0 0 0 0 0 0 0 0 0 0 0 0 0 0 0 0 0 0 0 0 0 0 0 0 0 0 0 0 0 0 0 0 0 0 0 0 0 0 0 0 0
-0 -0 -0 -0 0 0 0 0 0 0 0 0 0 0 0 0 0 0 0 0 0 0 0 0 0 0 0 0 0 0 0 0 0 0 0 0 0 0 0 0 0 0 0
-0 -0 -0 -0 -0 0 0 0 0 0 0 0 0 0 0 0 0 0 0 0 0 0 0 0 0 0 0 0 0 0 0 0 0 0 0 0 0 0 0 0 0 0 0
-0 -0 -0 -0 -0 0 0 0 0 0 0 0 0 0 0 0 0 0 0 0 0 0 0 0 0 0 0 0 0 0 0 0 0 0 0 0 0 0 0 0 0 0 0
-0 -0 -0 -0 -0 -0 -0 -0 -0 0 -0 0 -0 0 0 0 0 0 0 0 0 0 0 0 0 0 0 0 0 0 0 0 0 0 0 0 0 0 0 0 0 0 0
-0 -0 -0 -0 -0 -0 -0 -0 -0 -0 0 -0 0 0 0 0 0 0 0 0 0 0 0 0 0 0 0 0 0 0 0 0 0 0 0 0 0 0 0 0 0 0 0
0 -0 -0 -0 -0 -0 -0 -0 -0 -0 -0 -0 -0 -0 -0 0 0 0 0 0 0 0 0 0 0 0 0 0 0 0 0 0 0 0 0 0 0 0 0 0 0 0 0
Wind_Speed_500mb
9 8 7 23 43 43 45 49 51 49 44 40 36 37 49 53 52 50 46 43 41 41 40 41 42 46 44 37 34 37 35 46 48 51 52 52 53 54 55 53 54 54 51
5 5 8 24 43 47 48 48 49 48 45 42 40 39 39 43 48 44 41 42 39 38 40 43 43 44 41 35 35 40 38 49 49 48 48 47 47 49 48 48 49 47 45
4 2 7 21 42 50 50 52 50 47 44 43 43 44 44 43 42 41 39 40 39 41 42 47 45 49 43 39 39 40 48 50 48 46 43 41 43 44 41 39 38 38 38
3 5 6 16 40 49 50 53 55 49 44 41 43 46 47 46 44 43 41 41 39 39 43 48 53 49 45 43 45 49 51 49 47 44 43 41 41 37 34 32 31 31 33
7 12 14 13 28 47 51 53 54 53 46 43 44 48 49 49 47 47 46 45 46 41 46 53 56 53 51 52 52 50 46 42 41 45 48 42 43 39 35 32 32 31 31
14 14 19 20 17 41 52 52 54 56 54 51 51 52 52 50 47 47 48 49 46 45 49 54 59 62 57 54 50 45 41 36 37 43 43 42 43 38 30 28 30 31 31
17 19 25 21 22 30 48 54 57 60 60 58 55 56 56 51 51 53 51 50 47 44 53 57 60 61 64 57 51 45 38 32 32 47 43 39 37 34 32 34 34 32 32
16 28 30 32 27 24 43 55 63 64 59 56 57 63 64 57 55 55 49 47 44 47 54 64 67 69 62 52 42 38 36 32 30 32 42 44 40 39 36 35 32 32 35
17 19 27 33 34 33 33 50 56 65 60 46 52 52 61 64 60 57 50 44 43 46 69 71 71 66 58 51 39 34 33 23 19 28 36 44 42 38 37 34 34 35 35
10 11 18 34 42 43 40 47 50 47 49 55 57 58 53 49 54 54 49 40 39 52 71 72 69 63 55 41 38 36 28 20 16 30 40 45 41 40 38 36 35 35 34
12 14 15 23 39 44 47 48 50 46 48 59 45 42 49 51 51 49 46 46 47 61 68 71 69 61 49 45 41 39 28 17 18 33 41 42 42 41 38 37 35 34 32
16 18 23 25 30 43 45 48 50 51 56 44 58 48 49 40 50 56 51 47 50 59 67 72 72 60 45 49 52 40 24 23 24 32 41 41 42 39 37 35 33 31 28
18 19 23 25 27 32 42 48 50 53 52 51 55 56 63 64 65 64 56 55 57 58 64 69 77 64 54 54 45 37 27 24 21 30 37 39 37 37 37 35 32 30 28
19 17 23 23 26 28 31 36 41 38 43 54 59 55 68 75 76 70 65 63 64 66 67 70 81 70 64 42 35 35 28 20 12 23 34 37 36 37 36 34 32 30 27
21 19 20 21 25 27 29 32 35 42 44 46 48 65 83 80 79 73 70 65 64 65 67 75 81 77 69 39 36 36 31 19 11 22 34 34 36 36 36 35 30 27 24
25 26 21 23 28 27 26 31 40 42 43 54 53 62 88 84 79 78 70 65 63 61 66 76 81 80 66 41 41 38 27 22 14 19 31 34 34 35 35 33 30 27 25
25 21 30 28 33 31 29 30 40 47 43 40 73 79 81 84 83 75 68 66 62 62 63 69 83 75 62 43 40 34 28 27 18 15 29 32 35 34 32 31 30 27 25
27 20 24 29 34 34 36 34 37 44 44 56 78 81 77 79 73 74 71 68 64 65 65 74 86 65 67 50 37 36 32 33 21 16 28 32 34 34 33 30 28 24 21
30 23 22 34 38 44 37 39 41 43 47 65 76 80 77 77 79 77 77 75 70 68 70 75 86 65 66 52 38 38 37 31 25 26 23 28 26 27 27 26 23 22 21
35 25 23 35 40 41 37 41 42 45 51 62 65 71 84 85 78 78 76 77 74 76 73 73 71 64 57 50 42 40 38 32 29 26 27 28 25 25 23 27 25 25 24
41 32 25 42 52 51 54 54 51 49 57 66 72 82 88 86 80 78 76 76 75 80 73 68 61 59 56 47 57 42 35 31 31 30 30 29 30 28 28 26 30 28 28
46 36 28 44 55 59 57 58 60 56 54 59 76 91 90 89 82 80 78 79 78 79 76 68 70 69 62 52 57 56 44 37 40 40 35 37 37 36 37 36 36 36 35
54 42 33 37 51 58 58 56 58 57 63 58 81 97 102 84 82 79 81 77 81 77 80 71 77 68 70 64 53 48 28 22 51 51 49 47 46 49 46 44 45 44 43
56 41 33 33 49 53 54 56 53 60 62 65 68 85 99 83 85 80 73 76 84 78 77 75 76 71 66 69 63 54 44 34 29 30 57 61 57 55 54 54 52 51 52
57 46 38 35 44 51 48 45 45 44 45 42 60 59 85 85 84 72 67 79 72 79 79 81 78 69 67 70 75 50 58 63 39 35 31 49 64 65 65 62 59 56 54
57 49 45 39 44 50 52 52 44 49 45 54 63 71 84 84 67 68 72 81 78 71 55 62 51 69 69 74 57 52 72 68 61 50 41 36 35 37 42 56 63 59 55
Wind_Direction_500mb
193 237 226 183 182 180 177 173 172 174 173 170 167 154 150 156 159 158 156 156 160 162 163 162 154 149 146 147 138 139 137 137 131 128 122 121 120 121 119 120 115 112 111
245 301 200 185 187 184 181 178 177 175 173 172 173 170 164 163 161 162 163 162 163 166 164 161 159 146 152 157 150 146 153 139 136 134 127 127 127 124 121 120 119 117 116
220 346 181 194 193 190 186 184 182 181 177 175 173 174 174 172 169 167 165 163 166 168 165 162 152 151 162 159 154 157 151 146 142 137 133 127 127 125 125 124 126 129 134
302 276 196 206 199 197 192 191 188 184 183 180 176 175 175 176 174 171 169 169 169 166 161 154 147 153 159 158 154 149 148 146 143 136 130 127 120 129 130 132 134 134 135
293 266 227 221 215 206 200 197 193 192 188 182 181 178 176 174 174 172 167 162 156 150 144 146 148 150 150 149 148 149 149 149 147 137 132 131 126 123 129 135 134 135 135
215 241 224 223 225 218 210 203 199 195 193 188 185 182 178 175 172 167 160 156 155 155 149 150 146 144 143 145 145 148 149 152 153 143 136 138 131 129 137 141 133 131 134
215 213 219 223 220 225 220 211 206 200 196 191 189 186 182 177 170 163 159 160 160 163 153 153 148 145 148 146 150 149 147 148 156 141 142 144 135 131 131 130 130 131 130
203 221 218 207 216 222 224 218 213 206 200 193 193 190 184 181 170 166 163 165 168 167 157 153 149 149 147 148 156 149 148 136 144 160 148 134 134 132 133 132 128 124 132
265 249 223 208 205 215 230 224 220 216 186 184 189 192 182 183 168 168 166 167 175 168 157 152 155 152 151 163 163 154 150 151 163 162 152 139 136 137 136 133 133 134 129
243 294 232 215 215 213 223 222 223 214 202 195 199 162 173 184 174 173 170 162 175 163 160 157 157 154 158 163 157 156 156 147 165 166 156 141 139 135 134 132 131 129 127
230 236 251 224 222 223 222 226 221 214 204 206 195 172 192 192 177 176 176 164 167 163 164 162 160 157 160 161 165 162 155 158 158 158 149 145 138 138 134 131 132 132 131
235 240 243 234 229 224 228 226 227 220 210 220 205 208 209 198 185 187 181 170 167 167 165 163 162 160 163 161 159 157 163 136 137 156 150 145 141 139 137 138 141 137 136
232 240 245 239 226 214 221 224 230 226 225 223 208 203 197 196 187 187 179 175 167 167 171 169 165 161 157 162 162 163 154 135 123 163 155 151 146 145 144 145 143 142 138
224 238 237 226 206 208 219 227 222 218 213 211 202 195 174 184 184 186 180 175 172 174 171 169 168 161 160 167 170 168 162 147 133 168 162 155 153 153 150 149 150 144 140
215 230 225 213 205 210 210 215 201 204 206 202 203 200 195 187 186 185 180 174 172 172 171 168 168 165 165 166 166 170 167 166 148 174 171 162 162 161 158 156 149 143 144
225 224 238 217 207 212 203 200 201 206 209 206 212 195 185 176 184 184 179 174 173 176 174 171 171 169 168 172 166 166 173 181 176 178 183 168 169 165 163 157 151 153 156
225 232 228 223 205 206 208 206 202 198 199 200 177 167 172 183 184 182 178 175 178 173 172 173 172 170 171 168 167 170 188 191 186 196 191 179 173 169 166 161 159 164 167
227 231 218 203 207 203 204 201 195 184 188 178 175 178 184 188 188 188 186 181 178 173 174 171 170 169 171 175 174 180 190 186 177 177 182 181 176 171 171 171 170 177 180
219 226 213 184 202 203 206 202 196 190 194 190 186 185 191 192 192 192 187 181 179 175 169 170 175 173 174 176 182 182 188 191 185 174 168 177 179 179 184 185 188 194 203
209 208 202 188 195 200 193 199 191 193 194 197 200 200 191 192 194 197 190 182 177 176 172 175 178 182 184 180 183 181 190 195 197 194 191 186 191 195 197 202 207 214 222
203 202 199 189 190 199 198 196 196 198 200 203 202 201 193 195 199 196 190 185 181 179 177 181 180 181 185 188 189 184 190 200 210 217 215 214 217 218 220 225 230 234 235
206 203 201 193 191 197 201 200 203 203 209 212 205 199 197 199 202 202 198 191 187 187 186 184 186 186 190 189 191 201 193 200 219 227 232 236 238 235 235 238 243 246 248
203 204 205 198 194 196 202 209 213 214 216 215 213 205 203 202 202 201 197 197 194 193 189 190 190 193 193 191 198 196 189 209 219 225 232 238 241 242 245 247 249 254 254
205 203 201 200 192 197 203 209 214 214 212 216 218 212 202 201 199 201 201 203 199 202 201 195 195 193 195 193 198 209 217 227 209 221 230 233 238 243 248 252 255 258 257
204 204 199 199 190 200 200 205 206 205 211 213 217 208 213 192 197 203 204 199 200 202 206 200 192 199 199 203 197 199 223 222 226 221 226 233 237 244 248 254 257 259 259
203 204 199 201 196 195 196 202 199 200 201 212 210 205 199 186 189 204 200 202 198 197 187 191 194 209 206 209 212 219 224 222 226 227 229 235 247 256 256 253 254 256 258
Wind_Speed_850mb
9 8 7 23 43 43 45 49 51 49 44 40 36 37 49 53 52 50 46 43 41 41 40 41 42 46 44 37 34 37 35 46 48 51 52 52 53 54 55 53 54 54 51
5 5 8 24 43 47 48 48 49 48 45 42 40 39 39 43 48 44 41 42 39 38 40 43 43 44 41 35 35 40 38 49 49 48 48 47 47 49 48 48 49 47 45
4 2 7 21 42 50 50 52 50 47 44 43 43 44 44 43 42 41 39 40 39 41 42 47 45 49 43 39 39 40 48 50 48 46 43 41 43 44 41 39 38 38 38
3 5 6 16 40 49 50 53 55 49 44 41 43 46 47 46 44 43 41 41 39 39 43 48 53 49 45 43 45 49 51 49 47 44 43 41 41 37 34 32 31 31 33
7 12 14 13 28 47 51 53 54 53 46 43 44 48 49 49 47 47 46 45 46 41 46 53 56 53 51 52 52 50 46 42 41 45 48 42 43 39 35 32 32 31 31
14 14 19 20 17 41 52 52 54 56 54 51 51 52 52 50 47 47 48 49 46 45 49 54 59 62 57 54 50 45 41 36 37 43 43 42 43 38 30 28 30 31 31
17 19 25 21 22 30 48 54 57 60 60 58 55 56 56 51 51 53 51 50 47 44 53 57 60 61 64 57 51 45 38 32 32 47 43 39 37 34 32 34 34 32 32
16 28 30 32 27 24 43 55 63 64 59 56 57 63 64 57 55 55 49 47 44 47 54 64 67 69 62 52 42 38 36 32 30 32 42 44 40 39 36 35 32 32 35
17 19 27 33 34 33 33 50 56 65 60 46 52 52 61 64 60 57 50 44 43 46 69 71 71 66 58 51 39 34 33 23 19 28 36 44 42 38 37 34 34 35 35
10 11 18 34 42 43 40 47 50 47 49 55 57 58 53 49 54 54 49 40 39 52 71 72 69 63 55 41 38 36 28 20 16 30 40 45 41 40 38 36 35 35 34
12 14 15 23 39 44 47 48 50 46 48 59 45 42 49 51 51 49 46 46 47 61 68 71 69 61 49 45 41 39 28 17 18 33 41 42 42 41 38 37 35 34 32
16 18 23 25 30 43 45 48 50 51 56 44 58 48 49 40 50 56 51 47 50 59 67 72 72 60 45 49 52 40 24 23 24 32 41 41 42 39 37 35 33 31 28
18 19 23 25 27 32 42 48 50 53 52 51 55 56 63 64 65 64 56 55 57 58 64 69 77 64 54 54 45 37 27 24 21 30 37 39 37 37 37 35 32 30 28
19 17 23 23 26 28 31 36 41 38 43 54 59 55 68 75 76 70 65 63 64 66 67 70 81 70 64 42 35 35 28 20 12 23 34 37 36 37 36 34 32 30 27
21 19 20 21 25 27 29 32 35 42 44 46 48 65 83 80 79 73 70 65 64 65 67 75 81 77 69 39 36 36 31 19 11 22 34 34 36 36 36 35 30 27 24
25 26 21 23 28 27 26 31 40 42 43 54 53 62 88 84 79 78 70 65 63 61 66 76 81 80 66 41 41 38 27 22 14 19 31 34 34 35 35 33 30 27 25
25 21 30 28 33 31 29 30 40 47 43 40 73 79 81 84 83 75 68 66 62 62 63 69 83 75 62 43 40 34 28 27 18 15 29 32 35 34 32 31 30 27 25
27 20 24 29 34 34 36 34 37 44 44 56 78 81 77 79 73 74 71 68 64 65 65 74 86 65 67 50 37 36 32 33 21 16 28 32 34 34 33 30 28 24 21
30 23 22 34 38 44 37 39 41 43 47 65 76 80 77 77 79 77 77 75 70 68 70 75 86 65 66 52 38 38 37 31 25 26 23 28 26 27 27 26 23 22 21
35 25 23 35 40 41 37 41 42 45 51 62 65 71 84 85 78 78 76 77 74 76 73 73 71 64 57 50 42 40 38 32 29 26 27 28 25 25 23 27 25 25 24
41 32 25 42 52 51 54 54 51 49 57 66 72 82 88 86 80 78 76 76 75 80 73 68 61 59 56 47 57 42 35 31 31 30 30 29 30 28 28 26 30 28 28
46 36 28 44 55 59 57 58 60 56 54 59 76 91 90 89 82 80 78 79 78 79 76 68 70 69 62 52 57 56 44 37 40 40 35 37 37 36 37 36 36 36 35
54 42 33 37 51 58 58 56 58 57 63 58 81 97 102 84 82 79 81 77 81 77 80 71 77 68 70 64 53 48 28 22 51 51 49 47 46 49 46 44 45 44 43
56 41 33 33 49 53 54 56 53 60 62 65 68 85 99 83 85 80 73 76 84 78 77 75 76 71 66 69 63 54 44 34 29 30 57 61 57 55 54 54 52 51 52
57 46 38 35 44 51 48 45 45 44 45 42 60 59 85 85 84 72 67 79 72 79 79 81 78 69 67 70 75 50 58 63 39 35 31 49 64 65 65 62 59 56 54
57 49 45 39 44 50 52 52 44 49 45 54 63 71 84 84 67 68 72 81 78 71 55 62 51 69 69 74 57 52 72 68 61 50 41 36 35 37 42 56 63 59 55
Wind_Direction_850mb
193 237 226 183 182 180 177 173 172 174 173 170 167 154 150 156 159 158 156 156 160 162 163 162 154 149 146 147 138 139 137 137 131 128 122 121 120 121 119 120 115 112 111
245 301 200 185 187 184 181 178 177 175 173 172 173 170 164 163 161 162 163 162 163 166 164 161 159 146 152 157 150 146 153 139 136 134 127 127 127 124 121 120 119 117 116
220 346 181 194 193 190 186 184 182 181 177 175 173 174 174 172 169 167 165 163 166 168 165 162 152 151 162 159 154 157 151 146 142 137 133 127 127 125 125 124 126 129 134
302 276 196 206 199 197 192 191 188 184 183 180 176 175 175 176 174 171 169 169 169 166 161 154 147 153 159 158 154 149 148 146 143 136 130 127 120 129 130 132 134 134 135
293 266 227 221 215 206 200 197 193 192 188 182 181 178 176 174 174 172 167 162 156 150 144 146 148 150 150 149 148 149 149 149 147 137 132 131 126 123 129 135 134 135 135
215 241 224 223 225 218 210 203 199 195 193 188 185 182 178 175 172 167 160 156 155 155 149 150 146 144 143 145 145 148 149 152 153 143 136 138 131 129 137 141 133 131 134
215 213 219 223 220 225 220 211 206 200 196 191 189 186 182 177 170 163 159 160 160 163 153 153 148 145 148 146 150 149 147 148 156 141 142 144 135 131 131 130 130 131 130
203 221 218 207 216 222 224 218 213 206 200 193 193 190 184 181 170 166 163 165 168 167 157 153 149 149 147 148 156 149 148 136 144 160 148 134 134 132 133 132 128 124 132
265 249 223 208 205 215 230 224 220 216 186 184 189 192 182 183 168 168 166 167 175 168 157 152 155 152 151 163 163 154 150 151 163 162 152 139 136 137 136 133 133 134 129
243 294 232 215 215 213 223 222 223 214 202 195 199 162 173 184 174 173 170 162 175 163 160 157 157 154 158 163 157 156 156 147 165 166 156 141 139 135 134 132 131 129 127
230 236 251 224 222 223 222 226 221 214 204 206 195 172 192 192 177 176 176 164 167 163 164 162 160 157 160 161 165 162 155 158 158 158 149 145 138 138 134 131 132 132 131
235 240 243 234 229 224 228 226 227 220 210 220 205 208 209 198 185 187 181 170 167 167 165 163 162 160 163 161 159 157 163 136 137 156 150 145 141 139 137 138 141 137 136
232 240 245 239 226 214 221 224 230 226 225 223 208 203 197 196 187 187 179 175 167 167 171 169 165 161 157 162 162 163 154 135 123 163 155 151 146 145 144 145 143 142 138
224 238 237 226 206 208 219 227 222 218 213 211 202 195 174 184 184 186 180 175 172 174 171 169 168 161 160 167 170 168 162 147 133 168 162 155 153 153 150 149 150 144 140
215 230 225 213 205 210 210 215 201 204 206 202 203 200 195 187 186 185 180 174 172 172 171 168 168 165 165 166 166 170 167 166 148 174 171 162 162 161 158 156 149 143 144
225 224 238 217 207 212 203 200 201 206 209 206 212 195 185 176 184 184 179 174 173 176 174 171 171 169 168 172 166 166 173 181 176 178 183 168 169 165 163 157 151 153 156
225 232 228 223 205 206 208 206 202 198 199 200 177 167 172 183 184 182 178 175 178 173 172 173 172 170 171 168 167 170 188 191 186 196 191 179 173 169 166 161 159 164 167
227 231 218 203 207 203 204 201 195 184 188 178 175 178 184 188 188 188 186 181 178 173 174 171 170 169 171 175 174 180 190 186 177 177 182 181 176 171 171 171 170 177 180
219 226 213 184 202 203 206 202 196 190 194 190 186 185 191 192 192 192 187 181 179 175 169 170 175 173 174 176 182 182 188 191 185 174 168 177 179 179 184 185 188 194 203
209 208 202 188 195 200 193 199 191 193 194 197 200 200 191 192 194 197 190 182 177 176 172 175 178 182 184 180 183 181 190 195 197 194 191 186 191 195 197 202 207 214 222
203 202 199 189 190 199 198 196 196 198 200 203 202 201 193 195 199 196 190 185 181 179 177 181 180 181 185 188 189 184 190 200 210 217 215 214 217 218 220 225 230 234 235
206 203 201 193 191 197 201 200 203 203 209 212 205 199 197 199 202 202 198 191 187 187 186 184 186 186 190 189 191 201 193 200 219 227 232 236 238 235 235 238 243 246 248
203 204 205 198 194 196 202 209 213 214 216 215 213 205 203 202 202 201 197 197 194 193 189 190 190 193 193 191 198 196 189 209 219 225 232 238 241 242 245 247 249 254 254
205 203 201 200 192 197 203 209 214 214 212 216 218 212 202 201 199 201 201 203 199 202 201 195 195 193 195 193 198 209 217 227 209 221 230 233 238 243 248 252 255 258 257
204 204 199 199 190 200 200 205 206 205 211 213 217 208 213 192 197 203 204 199 200 202 206 200 192 199 199 203 197 199 223 222 226 221 226 233 237 244 248 254 257 259 259
203 204 199 201 196 195 196 202 199 200 201 212 210 205 199 186 189 204 200 202 198 197 187 191 194 209 206 209 212 219 224 222 226 227 229 235 247 256 256 253 254 256 258